Stations météo

réclame
Mon MeteoGroup
Capel Curig, Grande-Bretagne (3305): Température de l'air & dewpoint: 11.11.2019 18:00:00 - 17.11.2019 18:00:00 (GMT)Capel Curig, Grande-Bretagne (3305): Température de l'air -20cm & Température de l'air -100cm: 11.11.2019 18:00:00 - 17.11.2019 18:00:00 (GMT)Capel Curig, Grande-Bretagne (3305): Vitesse du vent & gusts: 11.11.2019 18:00:00 - 17.11.2019 18:00:00 (GMT)Capel Curig, Grande-Bretagne (3305): Direction du vent: 11.11.2019 18:00:00 - 17.11.2019 18:00:00 (GMT)Capel Curig, Grande-Bretagne (3305): reduced air pressure: 11.11.2019 18:00:00 - 17.11.2019 18:00:00 (GMT)Capel Curig, Grande-Bretagne (3305): visibility: 11.11.2019 18:00:00 - 17.11.2019 18:00:00 (GMT)Capel Curig, Grande-Bretagne (3305): Quantités de précipitations: 11.11.2019 18:00:00 - 17.11.2019 18:00:00 (GMT)
Date & Time tt [°C] td [°C] tt -20cm [°C] tt -100cm [°C] ff [km/h] ff [knt] fx [km/h] fx [knt] dd ppp [hPa] vv [km] rr [mm]
17.11.2019 18:00:00 6,3 5,0 - - 18 10 - - ENE 1017,1 65 0,0
17.11.2019 17:00:00 6,2 4,4 - - 26 14 - - NE 1016,7 70 0,0
17.11.2019 16:00:00 6,3 5,4 - - 22 12 - - ENE 1016,0 2,7 0,2
17.11.2019 15:00:00 6,5 5,4 - - 24 13 - - NE 1015,2 6 0,8
17.11.2019 14:00:00 6,6 5,6 - - 22 12 - - NE 1014,4 4,0 0,2
17.11.2019 13:00:00 6,7 5,2 - - 18 10 - - ENE 1014,2 7 0,0
17.11.2019 12:00:00 7,0 4,6 - - 21 11 - - ENE 1014,1 75 0,0
17.11.2019 11:00:00 6,8 4,7 - - 22 12 - - ENE 1013,9 75 0,0
17.11.2019 10:00:00 6,5 5,0 - - 18 10 - - ENE 1013,2 12 0,0
17.11.2019 09:00:00 6,4 3,6 7,2 8,7 11 6 - - ENE 1012,5 40 0,0
17.11.2019 08:00:00 6,2 2,7 - - 13 7 - - ENE 1011,9 75 0,0
17.11.2019 07:00:00 6,3 2,8 - - 9 5 - - ENE 1011,3 75 0,0
17.11.2019 06:00:00 5,1 4,4 - - 8 4 - - ENE 1010,7 75 0,2
17.11.2019 05:00:00 4,9 4,5 - - 5 3 - - SSE 1010,4 16 0,2
17.11.2019 04:00:00 5,0 4,4 - - 2 1 - - NNW 1010,0 8 1,6
17.11.2019 03:00:00 5,0 4,6 - - 5 3 - - ENE 1009,9 15 0,8
17.11.2019 02:00:00 5,1 4,4 - - 0 0 - - N 1009,7 4,6 1,6
17.11.2019 01:00:00 5,3 4,3 - - 2 1 - - WSW 1009,5 9 0,6
17.11.2019 00:00:00 5,8 4,9 - - 4 2 - - NE 1009,2 11 0,2
16.11.2019 23:00:00 5,6 5,0 - - 2 1 - - W 1008,7 24 0,0
16.11.2019 22:00:00 5,6 4,9 - - 2 1 - - E 1008,6 22 0,0
16.11.2019 21:00:00 5,5 5,0 - - 5 3 - - ENE 1008,5 13 0,0
16.11.2019 20:00:00 5,8 5,1 - - 4 2 - - NE 1008,3 45 0,0
16.11.2019 19:00:00 6,0 5,2 - - 2 1 - - NE 1008,2 45 0,0
16.11.2019 18:00:00 6,0 5,2 - - 4 2 - - W 1008,3 45 0,0
16.11.2019 17:00:00 6,8 5,7 - - 2 1 - - E 1007,8 60 0,0
16.11.2019 16:00:00 7,1 5,3 - - 5 3 - - SW 1007,7 75 0,0
16.11.2019 15:00:00 7,8 5,1 - - 5 3 - - WNW 1007,5 75 0,0
16.11.2019 14:00:00 7,6 5,6 - - 4 2 - - S 1007,6 75 0,0
16.11.2019 13:00:00 7,4 6,0 - - 8 4 - - ENE 1007,8 75 0,0
16.11.2019 12:00:00 7,3 5,7 - - 2 1 - - NW 1008,2 55 0,0
16.11.2019 11:00:00 6,8 5,4 - - 11 6 - - ENE 1008,3 35 0,0
16.11.2019 10:00:00 6,5 5,5 - - 9 5 - - E 1008,4 14 0,2
16.11.2019 09:00:00 6,2 5,2 7,0 8,7 11 6 - - ENE 1008,5 21 0,0
16.11.2019 08:00:00 6,4 4,9 - - 15 8 - - ENE 1008,5 30 0,0
16.11.2019 07:00:00 6,4 4,5 - - 21 11 - - ENE 1008,4 15 0,0
16.11.2019 06:00:00 6,3 4,1 - - 16 9 - - ENE 1008,4 40 0,6
16.11.2019 05:00:00 6,5 4,2 - - 22 12 48 26 ENE 1008,6 10 0,0
16.11.2019 04:00:00 6,5 3,9 - - 34 18 50 27 ENE 1008,3 35 0,0
16.11.2019 03:00:00 6,6 3,6 - - 34 18 52 28 ENE 1008,6 40 0,0
16.11.2019 02:00:00 6,5 3,6 - - 34 18 55 30 ENE 1008,8 40 0,0
16.11.2019 01:00:00 6,7 3,4 - - 34 18 59 32 ENE 1009,2 40 0,0
16.11.2019 00:00:00 6,8 2,8 - - 28 15 59 32 ENE 1009,7 50 0,0
15.11.2019 23:00:00 6,3 3,0 - - 34 18 57 31 ENE 1009,8 45 0,0
15.11.2019 22:00:00 6,4 3,8 - - 34 18 57 31 ENE 1010,2 40 0,0
15.11.2019 21:00:00 6,4 2,8 - - 44 24 61 33 NE 1010,4 50 0,4
15.11.2019 20:00:00 6,6 4,0 - - 31 17 57 31 ENE 1010,6 30 0,0
15.11.2019 19:00:00 7,0 3,3 - - 34 18 61 33 ENE 1010,9 50 0,0
15.11.2019 18:00:00 7,1 3,6 - - 35 19 65 35 ENE 1010,4 50 0,0
15.11.2019 17:00:00 7,0 3,8 - - 28 15 50 27 ENE 1010,9 60 0,0
15.11.2019 16:00:00 6,9 4,1 - - 31 17 57 31 ENE 1011,0 60 0,0
15.11.2019 15:00:00 6,7 4,1 - - 29 16 50 27 ENE 1010,9 35 0,0
15.11.2019 14:00:00 6,7 4,2 - - 34 18 54 29 ENE 1011,1 60 0,0
15.11.2019 13:00:00 6,4 3,9 - - 29 16 52 28 NE 1011,5 75 0,0
15.11.2019 12:00:00 6,0 3,8 - - 35 19 52 28 NE 1011,6 75 0,0
15.11.2019 11:00:00 5,6 4,1 - - 34 18 54 29 NE 1011,6 30 0,4
15.11.2019 10:00:00 5,4 4,0 - - 31 17 61 33 NE 1011,7 9 0,8
15.11.2019 09:00:00 5,5 4,0 6,9 8,7 35 19 59 32 ENE 1011,3 4,8 0,0
15.11.2019 08:00:00 5,1 3,5 - - 34 18 65 35 ENE 1011,0 10 1,0
15.11.2019 07:00:00 5,0 3,4 - - 42 23 63 34 ENE 1010,4 3,4 0,6
15.11.2019 06:00:00 4,7 2,9 - - 34 18 50 27 ENE 1010,1 5 1,4
15.11.2019 05:00:00 3,8 2,3 - - 28 15 68 37 ENE 1010,2 6 2,0
15.11.2019 04:00:00 4,1 2,4 - - 44 24 59 32 ENE 1009,8 2,8 0,6
15.11.2019 03:00:00 4,0 2,3 - - 29 16 57 31 ENE 1010,1 12 1,6
15.11.2019 02:00:00 3,9 2,3 - - 37 20 67 36 ENE 1010,2 5 1,6
15.11.2019 01:00:00 3,8 2,3 - - 42 23 70 38 ENE 1010,4 5 2,8
15.11.2019 00:00:00 3,8 2,4 - - 42 23 57 31 NE 1010,1 2,8 2,6
14.11.2019 23:00:00 3,7 2,5 - - 37 20 67 36 ENE 1009,8 5 3,0
14.11.2019 22:00:00 3,9 2,3 - - 44 24 67 36 ENE 1009,1 6 2,8
14.11.2019 21:00:00 4,1 2,6 - - 37 20 68 37 NE 1008,9 5 2,8
14.11.2019 20:00:00 4,0 2,1 - - 46 25 72 39 NE 1008,4 3,0 2,2
14.11.2019 19:00:00 4,2 1,9 - - 44 24 72 39 ENE 1007,8 4,7 1,2
14.11.2019 18:00:00 4,5 1,6 - - 52 28 76 41 ENE 1006,9 3,2 0,0
14.11.2019 17:00:00 5,3 1,0 - - 48 26 83 45 NE 1006,0 65 0,0
14.11.2019 16:00:00 5,2 1,2 - - 50 27 80 43 ENE 1005,0 50 0,0
14.11.2019 15:00:00 5,2 1,0 - - 52 28 89 48 ENE 1004,5 65 0,0
14.11.2019 14:00:00 5,1 0,7 - - 50 27 78 42 ENE 1003,8 75 0,0
14.11.2019 13:00:00 5,1 1,2 - - 50 27 76 41 NE 1003,3 70 0,0
14.11.2019 12:00:00 5,2 1,6 - - 52 28 74 40 NE 1002,7 70 0,0
14.11.2019 11:00:00 5,3 2,0 - - 48 26 68 37 NE 1002,3 55 0,0
14.11.2019 10:00:00 5,2 2,0 - - 48 26 72 39 NE 1001,7 55 0,0
14.11.2019 09:00:00 5,1 2,3 7,2 8,7 50 27 72 39 NE 1000,7 55 0,0
14.11.2019 08:00:00 5,0 2,5 - - 48 26 70 38 NE 999,4 50 0,0
14.11.2019 07:00:00 5,1 2,6 - - 48 26 67 36 NE 998,3 40 0,0
14.11.2019 06:00:00 4,8 2,4 - - 44 24 65 35 NE 997,1 40 0,0
14.11.2019 05:00:00 4,6 2,0 - - 42 23 59 32 NE 995,9 28 0,0
14.11.2019 04:00:00 4,2 1,9 - - 37 20 57 31 NE 994,9 24 0,0
14.11.2019 03:00:00 3,9 1,9 - - 39 21 54 29 ENE 993,7 19 0,0
14.11.2019 02:00:00 4,0 1,4 - - 35 19 65 35 ENE 992,6 28 0,0
14.11.2019 01:00:00 4,2 0,9 - - 54 29 74 40 NE 991,2 30 0,0
14.11.2019 00:00:00 4,0 1,5 - - 44 24 61 33 NE 990,5 29 0,0
13.11.2019 23:00:00 3,9 1,9 - - 29 16 46 25 NE 990,2 24 0,0
13.11.2019 22:00:00 4,4 1,9 - - 34 18 46 25 ENE 989,8 35 0,0
13.11.2019 21:00:00 4,5 2,0 - - 24 13 - - ENE 989,8 35 0,0
13.11.2019 20:00:00 4,4 2,1 - - 22 12 - - NE 989,7 30 0,0
13.11.2019 19:00:00 4,5 1,8 - - 11 6 - - N 989,9 45 0,0
13.11.2019 18:00:00 5,1 1,4 - - 9 5 - - SE 990,4 55 0,0
13.11.2019 17:00:00 4,9 1,6 - - 11 6 - - NE 991,1 50 0,0
13.11.2019 16:00:00 5,3 2,0 - - 15 8 - - NE 991,5 45 0,0
13.11.2019 15:00:00 5,6 2,0 - - 15 8 - - ENE 992,7 55 0,0
13.11.2019 14:00:00 6,4 1,7 - - 11 6 - - S 994,1 50 0,0
13.11.2019 13:00:00 6,2 2,6 - - 16 9 - - SSW 995,4 45 0,0
13.11.2019 12:00:00 5,8 3,0 - - 15 8 - - W 996,4 40 0,0
13.11.2019 11:00:00 5,6 2,1 - - 21 11 - - SW 997,8 40 0,0
13.11.2019 10:00:00 5,3 2,6 - - 18 10 - - SW 998,8 35 0,0
13.11.2019 09:00:00 4,3 2,8 7,2 8,7 11 6 - - W 999,9 35 0,0
13.11.2019 08:00:00 4,2 2,6 - - 13 7 - - W 1000,6 35 0,2
13.11.2019 07:00:00 4,7 3,1 - - 21 11 - - WSW 1000,8 45 0,2
13.11.2019 06:00:00 4,8 2,9 - - 21 11 - - WSW 1001,4 50 0,0
13.11.2019 05:00:00 4,5 2,4 - - 24 13 - - SW 1001,6 70 0,0
13.11.2019 04:00:00 4,9 3,3 - - 16 9 - - WSW 1001,9 45 0,0
13.11.2019 03:00:00 6,0 2,6 - - 16 9 - - W 1002,0 50 0,4
13.11.2019 02:00:00 6,4 2,7 - - 24 13 48 26 W 1002,2 14 0,0
13.11.2019 01:00:00 6,4 2,2 - - 21 11 67 36 W 1002,5 45 0,0
13.11.2019 00:00:00 6,6 2,3 - - 28 15 59 32 W 1002,5 45 0,0
12.11.2019 23:00:00 6,8 2,6 - - 18 10 54 29 W 1002,7 45 0,0
12.11.2019 22:00:00 7,1 3,0 - - 21 11 55 30 W 1002,8 45 0,2
12.11.2019 21:00:00 7,1 3,5 - - 21 11 68 37 W 1002,5 35 0,8
12.11.2019 20:00:00 7,4 3,8 - - 21 11 59 32 W 1002,0 2,1 0,2
12.11.2019 19:00:00 7,6 3,9 - - 24 13 83 45 W 1001,3 35 0,0
12.11.2019 18:00:00 7,4 4,3 - - 9 5 54 29 SSW 1001,0 12 0,2
12.11.2019 17:00:00 7,7 4,7 - - 15 8 67 36 W 1000,2 30 0,0
12.11.2019 16:00:00 7,5 5,1 - - 31 17 55 30 W 999,5 9 0,8
12.11.2019 15:00:00 7,9 5,0 - - 11 6 57 31 ENE 998,3 8 3,0
12.11.2019 14:00:00 8,0 4,5 - - 22 12 61 33 NNW 997,9 28 3,2
12.11.2019 13:00:00 7,8 4,5 - - 35 19 65 35 NW 996,9 11 2,0
12.11.2019 12:00:00 7,6 4,7 - - 28 15 76 41 NW 996,4 19 3,2
12.11.2019 11:00:00 7,0 5,1 - - 24 13 106 57 NNW 995,5 5 3,6
12.11.2019 10:00:00 5,3 4,0 - - 37 20 74 40 W 995,3 1,9 5,0
12.11.2019 09:00:00 4,5 2,8 7,4 9,0 41 22 70 38 W 996,0 3,4 2,2
12.11.2019 08:00:00 5,0 3,5 - - 46 25 83 45 W 996,1 3,1 5,2
12.11.2019 07:00:00 4,7 2,8 - - 57 31 87 47 WSW 996,0 2,9 1,6
12.11.2019 06:00:00 5,6 1,3 - - 54 29 85 46 W 996,7 27 0,0
12.11.2019 05:00:00 5,1 1,8 - - 46 25 72 39 WSW 997,8 26 0,0
12.11.2019 04:00:00 5,1 1,5 - - 39 21 67 36 W 998,3 30 0,0
12.11.2019 03:00:00 5,0 1,6 - - 44 24 83 45 WSW 998,8 30 0,0
12.11.2019 02:00:00 5,1 1,4 - - 42 23 63 34 W 999,1 30 0,0
12.11.2019 01:00:00 4,9 1,4 - - 29 16 70 38 W 999,6 35 0,0
12.11.2019 00:00:00 5,1 1,2 - - 37 20 70 38 W 999,5 30 0,0
11.11.2019 23:00:00 5,3 1,1 - - 42 23 85 46 W 999,4 35 0,0
11.11.2019 22:00:00 5,3 1,5 - - 39 21 76 41 W 999,8 35 0,0
11.11.2019 21:00:00 5,4 1,9 - - 35 19 68 37 W 1000,0 35 0,0
11.11.2019 20:00:00 5,7 1,5 - - 42 23 70 38 W 1000,2 35 0,0
11.11.2019 19:00:00 5,5 1,2 - - 41 22 67 36 W 1000,1 35 3,2
11.11.2019 18:00:00 4,8 2,2 - - 31 17 74 40 W 1000,6 2,8 1,6

tt = Température de l'air
td = dewpoint
tt -20cm = Température de l'air -20cm
tt -100cm = Température de l'air -100cm
ff = Vitesse du vent
fx = gusts
dd = Direction du vent
ppp = reduced air pressure
vv = visibility
rr = Quantités de précipitations

stations d'obs. à proximité